Weather History for NW Arkansas Airport, AR

Change the Weather History Date:

Saturday, December 8, 2012

  Actual Average Record
Temperature  
Mean Temperature 52 °F -  
Max Temperature 57 °F - - ()
Min Temperature 48 °F - - ()
Degree Days  
Heating Degree Days 12    
Growing Degree Days 2 (Base 50)    
Moisture  
Dew Point 51 °F    
Average Humidity 95    
Maximum Humidity 100    
Minimum Humidity 81    
Precipitation  
Precipitation 0.01 in - - ()
Sea Level Pressure  
Sea Level Pressure 29.87 in    
Wind  
Wind Speed 4 mph (NNE)    
Max Wind Speed 9 mph    
Max Gust Speed -    
Visibility 5 miles    
Events Fog    
T = Trace of Precipitation, MM = Missing Value Source: NWS Daily Summary

Daily Weather History Graph

Daily Weather History Graph

Search for Another Location

Airport:

Trip Planner

Search our weather history database for the weather conditions in past years. The results will help you decide how hot, cold, wet, or windy it might be!

Date:

Astronomy

Dec. 08, 2012 Rise Set
Actual Time 7:16 AM CST 5:02 PM CST
Civil Twilight 6:47 AM CST 5:30 PM CST
Nautical Twilight 6:15 AM CST 6:02 PM CST
Astronomical Twilight 5:44 AM CST 6:34 PM CST
Moon 1:49 AM CST (12/8) 1:26 PM CST (12/8)
Length of Visible Light 10h 42m
Length of Day
9h 45m
Waning Crescent, 28% of the Moon is Illuminated
Dec 8
Waning Crescent
Dec 13
New
Dec 19
First Quarter
Dec 28
Full
Jan 4
Last Quarter

Hourly Weather History & Observations

Time (CST) Temp. Dew Point Humidity Pressure Visibility Wind Dir Wind Speed Gust Speed Precip Events Conditions
12:53 AM 53.1 °F 53.1 °F 100% 29.86 in 4.0 mi NW 3.5 mph - 0.01 in   Overcast
1:11 AM 53.6 °F 53.6 °F 100% 29.87 in 4.0 mi NW 3.5 mph - N/A   Overcast
1:32 AM 51.8 °F 51.8 °F 100% 29.87 in 2.5 mi Calm Calm - N/A   Overcast
1:46 AM 51.8 °F 51.8 °F 100% 29.87 in 2.5 mi Calm Calm - N/A   Overcast
1:53 AM 52.0 °F 52.0 °F 100% 29.86 in 2.5 mi NNW 4.6 mph - N/A   Overcast
2:07 AM 51.8 °F 51.8 °F 100% 29.87 in 1.8 mi NNW 4.6 mph - N/A   Overcast
2:20 AM 51.8 °F 51.8 °F 100% 29.88 in 2.0 mi NNW 4.6 mph - N/A   Overcast
2:53 AM 52.0 °F 52.0 °F 100% 29.87 in 2.5 mi NNW 5.8 mph - N/A   Overcast
3:09 AM 51.8 °F 51.8 °F 100% 29.88 in 3.0 mi North 4.6 mph - N/A   Overcast
3:53 AM 52.0 °F 52.0 °F 100% 29.87 in 3.0 mi North 5.8 mph - N/A   Overcast
4:53 AM 52.0 °F 52.0 °F 100% 29.88 in 3.0 mi North 4.6 mph - N/A   Overcast
5:08 AM 51.8 °F 51.8 °F 100% 29.89 in 2.5 mi North 5.8 mph - N/A   Overcast
5:23 AM 51.8 °F 51.8 °F 100% 29.89 in 1.2 mi North 4.6 mph - N/A   Overcast
5:32 AM 51.8 °F 51.8 °F 100% 29.89 in 0.5 mi North 4.6 mph - N/A Fog Fog
5:53 AM 51.1 °F 51.1 °F 100% 29.89 in 2.5 mi North 5.8 mph - N/A   Overcast
6:03 AM 50.0 °F 50.0 °F 100% 29.90 in 1.2 mi North 9.2 mph - N/A   Overcast
6:53 AM 48.9 °F 48.9 °F 100% 29.91 in 1.2 mi North 9.2 mph - N/A   Overcast
7:35 AM 48.2 °F 48.2 °F 100% 29.92 in 2.0 mi NNE 6.9 mph - N/A   Overcast
7:53 AM 48.9 °F 48.9 °F 100% 29.92 in 1.2 mi North 8.1 mph - N/A   Overcast
8:03 AM 48.2 °F 48.2 °F 100% 29.92 in 0.8 mi NNE 8.1 mph - N/A   Overcast
8:27 AM 48.2 °F 48.2 °F 100% 29.93 in 1.0 mi NNE 6.9 mph - N/A   Overcast
8:53 AM 48.9 °F 48.9 °F 100% 29.92 in 1.2 mi NE 8.1 mph - N/A   Overcast
9:53 AM 48.9 °F 48.9 °F 100% 29.92 in 2.0 mi NE 6.9 mph - N/A   Overcast
10:29 AM 50.0 °F 50.0 °F 100% 29.92 in 3.0 mi ENE 8.1 mph - N/A   Overcast
10:53 AM 51.1 °F 50.0 °F 96% 29.91 in 4.0 mi East 6.9 mph - N/A   Overcast
11:24 AM 51.8 °F 51.8 °F 100% 29.91 in 5.0 mi East 5.8 mph - N/A   Overcast
11:53 AM 53.1 °F 51.1 °F 93% 29.89 in 5.0 mi East 5.8 mph - N/A   Overcast
12:27 PM 53.6 °F 51.8 °F 94% 29.88 in 6.0 mi East 5.8 mph - N/A   Overcast
12:53 PM 53.1 °F 51.1 °F 93% 29.87 in 6.0 mi East 5.8 mph - N/A   Overcast
1:53 PM 55.9 °F 52.0 °F 87% 29.83 in 7.0 mi East 6.9 mph - N/A   Overcast
2:10 PM 55.4 °F 51.8 °F 88% 29.83 in 7.0 mi East 8.1 mph - N/A   Scattered Clouds
2:53 PM 55.9 °F 51.1 °F 84% 29.82 in 8.0 mi SE 5.8 mph - N/A   Mostly Cloudy
3:53 PM 57.0 °F 51.1 °F 81% 29.81 in 8.0 mi Calm Calm - N/A   Mostly Cloudy
4:01 PM 57.2 °F 51.8 °F 82% 29.82 in 8.0 mi SE 4.6 mph - N/A   Scattered Clouds
4:53 PM 54.0 °F 51.1 °F 90% 29.82 in 7.0 mi Calm Calm - N/A   Partly Cloudy
5:53 PM 48.9 °F 48.0 °F 97% 29.82 in 8.0 mi Calm Calm - N/A   Clear
6:53 PM 54.0 °F 48.9 °F 83% 29.83 in 9.0 mi Calm Calm - N/A   Overcast
7:43 PM 53.6 °F 48.2 °F 82% 29.83 in 10.0 mi Calm Calm - N/A   Overcast
7:53 PM 53.1 °F 48.9 °F 86% 29.82 in 10.0 mi Calm Calm - N/A   Overcast
8:15 PM 53.6 °F 50.0 °F 88% 29.82 in 9.0 mi South 3.5 mph - N/A   Overcast
8:53 PM 54.0 °F 50.0 °F 86% 29.81 in 9.0 mi Calm Calm - N/A   Overcast
9:41 PM 53.6 °F 50.0 °F 88% 29.82 in 8.0 mi Calm Calm - N/A   Overcast
9:53 PM 53.1 °F 50.0 °F 89% 29.82 in 8.0 mi NNW 3.5 mph - N/A   Overcast
10:37 PM 53.6 °F 51.8 °F 94% 29.83 in 8.0 mi East 3.5 mph - N/A   Overcast
10:53 PM 53.1 °F 51.1 °F 93% 29.82 in 7.0 mi Calm Calm - N/A   Overcast
11:53 PM 50.0 °F 48.0 °F 93% 29.81 in 7.0 mi Calm Calm - N/A   Mostly Cloudy